Location: Unspecified
(52.4292°N, 19.3359°E)
Time: 15:47:56
(UTC+01:00)

A-11 Canister half - Pass Details

Date: 19 October 2025
Orbit: 1526 x 1682 km, 47.3° (Epoch: 13 November)

Event Time Altitude Azimuth Distance (km) Brightness Sun altitude
Exits shadow 05:54:10 16° 265° (W) 3,238 10.0 -13.0°
Maximum altitude 06:01:48 63° 189° (S) 1,680 9.2 -11.9°
Drops below altitude 10° 06:10:59 10° 112° (ESE) 3,723 12.3 -10.5°
Sets 06:14:05 0° 109° (ESE) 4,720 13.3 -10.0°
